Погода в Алте

Норвегия     69°58′03″N   23°16′08″E
темп.,
°C
ветер,
м/с
пор.,
м/с
влажн.,
%
обл.,
%
осадки,
мм/ч
давл.,
гПа
погр.,
м
19 июня, сб
сб1923:00+8ю118599 2.1 100794
02:00+9юз3478100 2.1 1008137
05:00+9з567598 1.3 1010251
08:00+8юз61281100 3.0 1012496
11:00+7з61484100 1.6 1015922
14:00+8зюз477752 1.8 1015285
17:00+9зюз346719 0.0 1016240
20:00+9с2267100 0.0 1016187
20 июня, вс
вс2023:00+8с337794 0.0 101740
02:00+7ссз238370 0.0 101771
05:00+8ссз1178100 0.0 101566
08:00+8зсз1177100 0.0 1015122
11:00+8ссз2279100 0.0 1015177
14:00+8ссз127999 0.1 1015189
17:00+9с237414 0.1 1015275
20:00+8ссз447813 0.1 1016191
21 июня, пн
пн2123:00+8ссз338398 0.0 101742
02:00+7зсз228699 0.0 101715
05:00+8ююв2282100 0.0 1016114
08:00+10ююв4678100 0.0 1014262
11:00+10ююв6982100 0.1 1013305
14:00+10юв71187100 3.1 1010330
17:00+9юв3491100 0.9 1007160
20:00+9зсз2296100 1.7 100519
22 июня, вт
вт2223:00+9ссв1193100 0.0 100532
02:00+8вюв119518 0.1 100716
05:00+10зюз338596 0.0 1008156
08:00+8зсз14197191 0.1 1011824
11:00+8з15197698 0.0 10141030
14:00+8з14177427 0.1 10171120
17:00+9зсз9126928 0.1 1019742
20:00+8сз23695 0.1 1020362
23 июня, ср
ср2323:00+8ююв22718 0.0 102217
02:00+7ююв22765 0.0 102216
05:00+7юв337349 0.0 1022143
08:00+9ююв456298 0.0 1020264
11:00+11ююв795382 0.0 1018434
14:00+11ю895412 0.0 1017458
17:00+12ююв67537 0.0 1016453
20:00+11ююв796240 0.0 1015226